CW8880 Weather Reports


Display with metric or nautical units.
time (UTC)temp
F
wind
direction
speed
MPH
gust
MPH
rain 1hr
in
rain 24hr
in
rain mn
in
humidity
%
barometer
mb
20200712165840 89 198 4.0 12.0 0.00 0.00 0.00 26 1017.1
20200712165341 90 160 4.0 12.0 0.00 0.00 0.00 26 1017.1
20200712164848 89 173 3.0 9.0 0.00 0.00 0.00 26 1017.2
20200712164334 89 172 5.0 9.0 0.00 0.00 0.00 26 1017.1
20200712163838 89 109 5.0 9.0 0.00 0.00 0.00 26 1017.3
20200712163345 89 105 3.0 11.0 0.00 0.00 0.00 27 1017.3
20200712162846 89 145 5.0 11.0 0.00 0.00 0.00 26 1017.3
20200712162328 88 147 4.0 8.0 0.00 0.00 0.00 26 1017.4
20200712161834 88 153 3.0 7.0 0.00 0.00 0.00 28 1017.4
20200712161336 88 194 2.0 8.0 0.00 0.00 0.00 29 1017.4
20200712160841 87 148 4.0 11.0 0.00 0.00 0.00 29 1017.2
20200712160351 87 109 4.0 11.0 0.00 0.00 0.00 28 1017.3
20200712155832 86 144 3.0 7.0 0.00 0.00 0.00 29 1017.4
20200712155337 86 161 4.0 8.0 0.00 0.00 0.00 29 1017.6
20200712154848 85 157 4.0 11.0 0.00 0.00 0.00 29 1017.7
20200712154350 85 176 3.0 9.0 0.00 0.00 0.00 30 1017.6
20200712153832 85 164 4.0 9.0 0.00 0.00 0.00 30 1017.7
20200712153335 84 169 4.0 9.0 0.00 0.00 0.00 31 1017.7
20200712152838 84 171 3.0 9.0 0.00 0.00 0.00 30 1017.6
20200712152344 84 185 3.0 8.0 0.00 0.00 0.00 32 1017.6
20200712151831 83 132 4.0 7.0 0.00 0.00 0.00 32 1017.6
20200712151333 83 186 4.0 7.0 0.00 0.00 0.00 32 1017.7
20200712150841 83 167 3.0 9.0 0.00 0.00 0.00 32 1017.8
20200712150344 83 146 4.0 9.0 0.00 0.00 0.00 33 1017.8
20200712145831 82 160 3.0 7.0 0.00 0.00 0.00 33 1017.8
20200712145340 82 186 3.0 7.0 0.00 0.00 0.00 32 1017.8
20200712144841 81 111 3.0 7.0 0.00 0.00 0.00 33 1017.8
20200712144342 81 111 1.0 6.0 0.00 0.00 0.00 36 1017.7
20200712143848 80 102 2.0 6.0 0.00 0.00 0.00 36 1017.6
20200712143331 80 98 3.0 8.0 0.00 0.00 0.00 36 1017.6
20200712142835 80 105 4.0 8.0 0.00 0.00 0.00 35 1017.6
20200712142338 79 119 4.0 7.0 0.00 0.00 0.00 34 1017.7
20200712141840 79 142 4.0 8.0 0.00 0.00 0.00 37 1017.6
20200712141344 78 122 4.0 8.0 0.00 0.00 0.00 37 1017.6
20200712140830 78 164 3.0 9.0 0.00 0.00 0.00 37 1017.5
20200712140338 78 173 4.0 9.0 0.00 0.00 0.00 37 1017.6
20200712135840 78 226 4.0 9.0 0.00 0.00 0.00 37 1017.6
20200712135344 78 140 3.0 10.0 0.00 0.00 0.00 35 1017.6
20200712134831 78 162 3.0 10.0 0.00 0.00 0.00 33 1017.5
20200712134342 78 140 4.0 10.0 0.00 0.00 0.00 32 1017.4
20200712133334 78 192 4.0 9.0 0.00 0.00 0.00 33 1017.3
20200712132837 77 158 3.0 7.0 0.00 0.00 0.00 34 1017.2
20200712132340 77 229 2.0 7.0 0.00 0.00 0.00 36 1017.3
20200712131843 76 216 2.0 7.0 0.00 0.00 0.00 37 1017.1
20200712131346 75 229 2.0 7.0 0.00 0.00 0.00 38 1017.2
20200712130829 75 210 3.0 7.0 0.00 0.00 0.00 38 1017.2
20200712130333 75 172 3.0 6.0 0.00 0.00 0.00 37 1017.2
20200712125841 75 200 3.0 6.0 0.00 0.00 0.00 37 1017.2
20200712125343 75 179 3.0 6.0 0.00 0.00 0.00 37 1017.1
20200712124339 74 205 2.0 6.0 0.00 0.00 0.00 37 1017.2
20200712123845 74 189 1.0 4.0 0.00 0.00 0.00 38 1017.2
20200712123347 74 189 2.0 6.0 0.00 0.00 0.00 37 1017.2
20200712122831 74 189 2.0 7.0 0.00 0.00 0.00 36 1017.1
20200712122332 74 191 3.0 7.0 0.00 0.00 0.00 36 1017.2
20200712121840 75 146 2.0 5.0 0.00 0.00 0.00 36 1017.1
20200712121342 75 153 2.0 7.0 0.00 0.00 0.00 35 1017.1
20200712120852 75 146 2.0 6.0 0.00 0.00 0.00 35 1017.1
20200712120348 75 161 2.0 9.0 0.00 0.00 0.00 35 1017.0
20200712115831 75 186 3.0 7.0 0.00 0.00 0.00 37 1017.1
20200712115339 75 178 2.0 7.0 0.00 0.00 0.00 37 1017.0
20200712114846 75 186 3.0 8.0 0.00 0.00 0.00 38 1016.8
20200712114332 75 213 4.0 9.0 0.00 0.00 0.00 38 1016.7
20200712113839 75 186 3.0 9.0 0.00 0.00 0.00 39 1016.7
20200712113342 75 136 4.0 10.0 0.00 0.00 0.00 39 1016.7
20200712112843 75 198 4.0 10.0 0.00 0.00 0.00 39 1016.6
20200712112326 75 195 4.0 15.0 0.00 0.00 0.00 41 1016.7
20200712111832 75 165 4.0 9.0 0.00 0.00 0.00 41 1016.7
20200712111337 75 187 3.0 9.0 0.00 0.00 0.00 40 1016.7
20200712110841 75 186 4.0 9.0 0.00 0.00 0.00 38 1016.6
20200712110328 76 178 4.0 10.0 0.00 0.00 0.00 38 1016.7
20200712105835 76 160 3.0 10.0 0.00 0.00 0.00 35 1016.6
20200712105341 77 165 3.0 12.0 0.00 0.00 0.00 34 1016.6
20200712104828 78 195 4.0 12.0 0.00 0.00 0.00 32 1016.6
20200712104333 78 165 4.0 11.0 0.00 0.00 0.00 32 1016.6
20200712103835 78 132 4.0 10.0 0.00 0.00 0.00 32 1016.6
20200712103338 78 162 4.0 8.0 0.00 0.00 0.00 33 1016.6
20200712102841 79 128 4.0 11.0 0.00 0.00 0.00 30 1016.5
20200712102344 79 138 4.0 11.0 0.00 0.00 0.00 29 1016.6
20200712101830 78 121 4.0 12.0 0.00 0.00 0.00 30 1016.7
20200712101338 77 241 2.0 4.0 0.00 0.00 0.00 30 1016.6
20200712100842 76 268 2.0 3.0 0.00 0.00 0.00 31 1016.7
20200712100329 77 264 1.0 3.0 0.00 0.00 0.00 32 1016.8
20200712095832 77 253 1.0 6.0 0.00 0.00 0.00 33 1016.6
20200712095340 77 245 2.0 6.0 0.00 0.00 0.00 33 1016.6
20200712094844 77 232 1.0 6.0 0.00 0.00 0.00 34 1016.6
20200712094432 77 227 2.0 6.0 0.00 0.00 0.00 35 1016.7
20200712093922 77 248 2.0 4.0 0.00 0.00 0.00 36 1016.8
20200712093546 78 229 2.0 7.0 0.00 0.00 0.00 37 1017.0
20200712092830 78 142 3.0 7.0 0.00 0.00 0.00 36 1017.1
20200712092338 78 163 3.0 7.0 0.00 0.00 0.00 35 1017.1
20200712091844 78 191 3.0 9.0 0.00 0.00 0.00 35 1017.0
20200712091331 78 191 5.0 11.0 0.00 0.00 0.00 35 1017.1
20200712090833 79 213 4.0 10.0 0.00 0.00 0.00 35 1017.1
20200712090336 79 205 4.0 11.0 0.00 0.00 0.00 35 1017.1
20200712085844 79 192 5.0 11.0 0.00 0.00 0.00 36 1017.1
20200712085355 78 150 3.0 8.0 0.00 0.00 0.00 35 1016.9
20200712084848 78 233 3.0 8.0 0.00 0.00 0.00 39 1017.0
20200712084331 78 211 2.0 6.0 0.00 0.00 0.00 38 1016.8
20200712083837 79 146 3.0 9.0 0.00 0.00 0.00 37 1016.8
20200712083340 79 152 4.0 11.0 0.00 0.00 0.00 36 1017.0
20200712082829 79 133 4.0 11.0 0.00 0.00 0.00 35 1017.3
20200712082341 80 204 2.0 7.0 0.00 0.00 0.00 33 1017.3
20200712081842 80 209 2.0 7.0 0.00 0.00 0.00 33 1017.1
20200712081348 81 170 3.0 9.0 0.00 0.00 0.00 32 1017.1
20200712080831 81 205 3.0 10.0 0.00 0.00 0.00 31 1017.2
20200712080333 80 183 2.0 5.0 0.00 0.00 0.00 32 1017.2
20200712075836 80 214 3.0 5.0 0.00 0.00 0.00 32 1017.2
20200712075341 81 214 2.0 6.0 0.00 0.00 0.00 32 1017.2
20200712074844 80 214 3.0 6.0 0.00 0.00 0.00 32 1017.3
20200712074345 80 217 3.0 6.0 0.00 0.00 0.00 32 1017.2
20200712073830 81 240 3.0 7.0 0.00 0.00 0.00 32 1017.3
20200712073336 80 202 3.0 5.0 0.00 0.00 0.00 31 1017.4
20200712072838 80 232 3.0 5.0 0.00 0.00 0.00 31 1017.3
20200712072340 80 227 2.0 5.0 0.00 0.00 0.00 32 1017.4
20200712071844 80 244 3.0 5.0 0.00 0.00 0.00 31 1017.4
20200712071350 80 236 2.0 5.0 0.00 0.00 0.00 31 1017.6
20200712070828 79 232 3.0 5.0 0.00 0.00 0.00 31 1017.7
20200712070333 79 233 3.0 5.0 0.00 0.00 0.00 30 1017.8
20200712065834 78 228 2.0 6.0 0.00 0.00 0.00 31 1017.9
20200712065339 76 211 2.0 6.0 0.00 0.00 0.00 33 1017.7
20200712064842 73 215 2.0 6.0 0.00 0.00 0.00 36 1017.7
20200712064333 73 291 2.0 4.0 0.00 0.00 0.00 39 1017.7
20200712063835 73 291 2.0 4.0 0.00 0.00 0.00 43 1017.9
20200712063338 73 291 1.0 2.0 0.00 0.00 0.00 40 1018.0
20200712062844 73 291 0.0 1.0 0.00 0.00 0.00 40 1017.8
20200712062343 72 291 0.0 4.0 0.00 0.00 0.00 39 1017.9
20200712061846 72 291 2.0 4.0 0.00 0.00 0.00 41 1018.0
20200712061328 73 291 1.0 2.0 0.00 0.00 0.00 42 1017.8
20200712060833 73 291 0.0 4.0 0.00 0.00 0.00 41 1017.6
20200712060336 72 291 0.0 4.0 0.00 0.00 0.00 40 1017.7
20200712055837 72 291 3.0 4.0 0.00 0.00 0.00 43 1017.7
20200712055341 72 291 1.0 3.0 0.00 0.00 0.00 42 1017.7
20200712054829 73 291 2.0 3.0 0.00 0.00 0.00 42 1017.7
20200712054332 73 291 0.0 2.0 0.00 0.00 0.00 42 1017.8
20200712053834 73 291 0.0 0.0 0.00 0.00 0.00 42 1017.9
20200712053337 74 291 0.0 0.0 0.00 0.00 0.00 40 1017.9
20200712052842 74 291 0.0 2.0 0.00 0.00 0.00 42 1018.1
20200712052345 74 291 0.0 2.0 0.00 0.00 0.00 41 1017.9
20200712051831 74 291 1.0 2.0 0.00 0.00 0.00 40 1017.7
20200712051337 74 291 0.0 1.0 0.00 0.00 0.00 38 1017.8
20200712050334 75 291 0.0 0.0 0.00 0.00 0.00 38 1017.9
20200712045836 76 291 0.0 0.0 0.00 0.00 0.00 35 1017.9
20200712045338 76 291 0.0 1.0 0.00 0.00 0.00 36 1018.1
20200712044843 77 291 0.0 1.0 0.00 0.00 0.00 36 1017.9
20200712044329 77 291 0.0 0.0 0.00 0.00 0.00 34 1018.0
20200712043830 78 292 0.0 0.0 0.00 0.00 0.00 33 1018.0
20200712043331 78 291 0.0 0.0 0.00 0.00 0.00 32 1018.1
20200712042837 78 292 0.0 0.0 0.00 0.00 0.00 32 1018.0
20200712042344 79 292 0.0 2.0 0.00 0.00 0.00 32 1018.0
20200712041845 79 291 0.0 2.0 0.00 0.00 0.00 32 1018.0
20200712041330 79 291 1.0 4.0 0.00 0.00 0.00 31 1018.1
20200712040833 80 291 2.0 4.0 0.00 0.00 0.00 30 1018.1
20200712040334 80 302 0.0 2.0 0.00 0.00 0.00 28 1017.9
20200712035834 80 302 1.0 2.0 0.00 0.00 0.00 30 1017.9
20200712035336 81 289 0.0 3.0 0.00 0.00 0.00 29 1017.9
20200712034839 81 296 1.0 3.0 0.00 0.00 0.00 28 1017.9
20200712034343 81 307 1.0 3.0 0.00 0.00 0.00 27 1017.9
20200712033829 82 311 1.0 2.0 0.00 0.00 0.00 27 1017.9
20200712033334 82 320 0.0 3.0 0.00 0.00 0.00 27 1017.9
20200712032837 82 334 1.0 3.0 0.00 0.00 0.00 27 1017.8
20200712032339 82 334 1.0 2.0 0.00 0.00 0.00 26 1017.8
20200712031842 82 10 0.0 2.0 0.00 0.00 0.00 27 1017.7
20200712031347 83 18 0.0 2.0 0.00 0.00 0.00 28 1017.7
20200712030849 83 21 0.0 3.0 0.00 0.00 0.00 27 1017.6
20200712030332 84 22 2.0 3.0 0.00 0.00 0.00 27 1017.6
20200712025836 86 22 2.0 3.0 0.00 0.00 0.00 26 1017.7
20200712025338 86 22 0.0 2.0 0.00 0.00 0.00 25 1017.8
20200712024847 87 22 0.0 2.0 0.00 0.00 0.00 25 1017.7
20200712024331 87 22 1.0 2.0 0.00 0.00 0.00 25 1017.6
20200712023834 88 22 1.0 2.0 0.00 0.00 0.00 25 1017.7
20200712023336 88 22 1.0 2.0 0.00 0.00 0.00 24 1017.6
20200712022841 89 22 0.0 2.0 0.00 0.00 0.00 25 1017.6
20200712022326 89 22 0.0 2.0 0.00 0.00 0.00 24 1017.7
20200712021348 91 24 0.0 2.0 0.00 0.00 0.00 23 1017.8
20200712020829 92 24 0.0 2.0 0.00 0.00 0.00 23 1017.7
20200712020332 92 24 0.0 3.0 0.00 0.00 0.00 23 1017.8
20200712015838 93 24 0.0 3.0 0.00 0.00 0.00 22 1017.8
20200712015343 94 24 0.0 2.0 0.00 0.00 0.00 23 1017.7
20200712014830 94 24 0.0 3.0 0.00 0.00 0.00 22 1017.6
20200712014335 94 24 0.0 4.0 0.00 0.00 0.00 22 1017.7
20200712013837 95 25 0.0 4.0 0.00 0.00 0.00 21 1017.9
20200712013345 95 25 0.0 4.0 0.00 0.00 0.00 20 1017.9
20200712012846 95 25 0.0 4.0 0.00 0.00 0.00 20 1017.9
20200712012329 95 25 0.0 4.0 0.00 0.00 0.00 20 1017.9
20200712011839 95 25 1.0 4.0 0.00 0.00 0.00 20 1018.0
20200712011339 95 26 1.0 4.0 0.00 0.00 0.00 20 1018.0
20200712010844 95 45 1.0 5.0 0.00 0.00 0.00 20 1018.0
20200712010332 95 45 2.0 5.0 0.00 0.00 0.00 20 1018.0
20200712005837 95 48 2.0 7.0 0.00 0.00 0.00 20 1018.0
20200712005341 96 27 2.0 7.0 0.00 0.00 0.00 20 1018.1
20200712004847 96 27 1.0 9.0 0.00 0.00 0.00 19 1018.1
20200712004333 96 26 2.0 9.0 0.00 0.00 0.00 19 1018.1
20200712003833 96 13 1.0 4.0 0.00 0.00 0.00 21 1018.1
20200712003340 96 13 2.0 6.0 0.00 0.00 0.00 20 1018.2
20200712002842 96 38 1.0 6.0 0.00 0.00 0.00 20 1018.2
20200712002346 96 38 1.0 6.0 0.00 0.00 0.00 21 1018.2
20200712001831 96 20 1.0 7.0 0.00 0.00 0.00 21 1018.3
20200712001336 96 22 3.0 6.0 0.00 0.00 0.00 20 1018.3
20200712000836 96 37 2.0 7.0 0.00 0.00 0.00 21 1018.5
20200712000339 97 36 2.0 7.0 0.00 0.00 0.00 21 1018.6
20200711235832 97 30 1.0 4.0 0.00 0.00 0.00 22 1018.6
20200711235337 97 40 2.0 7.0 0.00 0.00 0.00 20 1018.6
20200711234839 97 24 2.0 7.0 0.00 0.00 0.00 20 1018.7
20200711234345 97 19 2.0 6.0 0.00 0.00 0.00 20 1018.8
20200711233849 97 30 1.0 6.0 0.00 0.00 0.00 21 1018.8
20200711233332 98 30 1.0 7.0 0.00 0.00 0.00 21 1018.9
20200711232835 98 14 1.0 8.0 0.00 0.00 0.00 21 1018.8
20200711232338 98 29 1.0 8.0 0.00 0.00 0.00 21 1018.8
20200711231845 98 30 1.0 4.0 0.00 0.00 0.00 20 1018.9
20200711231328 97 41 1.0 4.0 0.00 0.00 0.00 21 1019.0
20200711230836 97 42 1.0 5.0 0.00 0.00 0.00 21 1019.0
20200711230342 97 345 2.0 7.0 0.00 0.00 0.00 20 1019.1
20200711225827 97 30 1.0 9.0 0.00 0.00 0.00 19 1019.1
20200711225333 97 22 1.0 9.0 0.00 0.00 0.00 20 1019.2
20200711224837 97 348 2.0 7.0 0.00 0.00 0.00 20 1019.2
20200711224337 97 355 2.0 7.0 0.00 0.00 0.00 20 1019.2
20200711223844 97 13 2.0 5.0 0.00 0.00 0.00 21 1019.2
20200711223346 97 315 2.0 5.0 0.00 0.00 0.00 20 1019.2
20200711222832 97 9 2.0 4.0 0.00 0.00 0.00 21 1019.2
20200711222335 97 40 1.0 7.0 0.00 0.00 0.00 21 1019.1
20200711221835 97 30 1.0 8.0 0.00 0.00 0.00 21 1019.0
20200711221342 97 319 2.0 8.0 0.00 0.00 0.00 21 1019.0
20200711220845 98 323 1.0 6.0 0.00 0.00 0.00 21 1019.2
20200711220347 98 340 2.0 8.0 0.00 0.00 0.00 21 1019.2
20200711215831 98 18 1.0 8.0 0.00 0.00 0.00 20 1019.2
20200711215336 98 48 2.0 6.0 0.00 0.00 0.00 19 1019.3
20200711214841 99 355 2.0 5.0 0.00 0.00 0.00 19 1019.5
20200711214343 99 17 2.0 6.0 0.00 0.00 0.00 19 1019.5
20200711213845 99 342 2.0 6.0 0.00 0.00 0.00 19 1019.5
20200711213348 98 36 1.0 5.0 0.00 0.00 0.00 20 1019.5
20200711212829 98 23 1.0 5.0 0.00 0.00 0.00 17 1019.5
20200711212331 97 23 2.0 5.0 0.00 0.00 0.00 15 1019.5
20200711211838 97 202 2.0 10.0 0.00 0.00 0.00 13 1019.7
20200711211340 97 148 4.0 10.0 0.00 0.00 0.00 15 1019.5
20200711210900 97 136 5.0 9.0 0.00 0.00 0.00 14 1019.5
20200711210350 96 102 4.0 9.0 0.00 0.00 0.00 14 1019.5
20200711205845 96 144 3.0 7.0 0.00 0.00 0.00 17 1019.7
20200711205330 97 99 4.0 8.0 0.00 0.00 0.00 15 1019.8
20200711204839 96 132 3.0 10.0 0.00 0.00 0.00 15 1019.7
20200711204342 96 192 5.0 10.0 0.00 0.00 0.00 15 1019.8
20200711203827 96 94 5.0 9.0 0.00 0.00 0.00 14 1019.7
20200711203333 96 160 2.0 7.0 0.00 0.00 0.00 16 1019.8
20200711202840 96 102 3.0 8.0 0.00 0.00 0.00 15 1020.0
20200711202348 96 98 1.0 8.0 0.00 0.00 0.00 18 1020.1
20200711201831 96 204 2.0 8.0 0.00 0.00 0.00 16 1020.2
20200711201333 96 94 2.0 11.0 0.00 0.00 0.00 17 1020.3
20200711200836 96 94 6.0 11.0 0.00 0.00 0.00 15 1020.3
20200711200338 95 90 1.0 7.0 0.00 0.00 0.00 19 1020.4
20200711195840 95 90 3.0 7.0 0.00 0.00 0.00 16 1020.6
20200711195343 94 157 4.0 7.0 0.00 0.00 0.00 16 1020.7
20200711194848 94 98 5.0 10.0 0.00 0.00 0.00 16 1020.7
20200711194329 93 81 5.0 10.0 0.00 0.00 0.00 16 1020.8
20200711193831 94 98 4.0 10.0 0.00 0.00 0.00 17 1020.9
20200711193337 93 150 4.0 9.0 0.00 0.00 0.00 16 1021.0
20200711192844 93 112 4.0 9.0 0.00 0.00 0.00 18 1021.1
20200711192349 93 119 4.0 11.0 0.00 0.00 0.00 16 1021.2
20200711191830 94 125 2.0 6.0 0.00 0.00 0.00 17 1021.2
20200711191337 93 157 2.0 6.0 0.00 0.00 0.00 18 1021.4
20200711190837 93 101 3.0 6.0 0.00 0.00 0.00 18 1021.4
20200711190338 92 102 3.0 8.0 0.00 0.00 0.00 19 1021.4
20200711185845 92 122 4.0 8.0 0.00 0.00 0.00 17 1021.4
20200711185331 91 101 3.0 10.0 0.00 0.00 0.00 19 1021.4
20200711184833 91 155 3.0 10.0 0.00 0.00 0.00 18 1021.4
20200711184338 91 121 5.0 11.0 0.00 0.00 0.00 18 1021.6
20200711183828 91 136 4.0 10.0 0.00 0.00 0.00 20 1021.6
20200711183332 90 128 4.0 10.0 0.00 0.00 0.00 20 1021.7
20200711182833 90 163 3.0 7.0 0.00 0.00 0.00 21 1021.8
20200711182336 89 184 4.0 8.0 0.00 0.00 0.00 23 1021.9
20200711181839 89 156 4.0 8.0 0.00 0.00 0.00 21 1022.0
20200711181343 88 146 4.0 8.0 0.00 0.00 0.00 22 1022.0
20200711180843 88 144 3.0 8.0 0.00 0.00 0.00 24 1022.0
20200711180345 87 162 2.0 7.0 0.00 0.00 0.00 25 1022.2
20200711175827 86 161 4.0 7.0 0.00 0.00 0.00 24 1022.1
20200711175333 86 101 4.0 7.0 0.00 0.00 0.00 25 1022.0
20200711174834 85 200 3.0 7.0 0.00 0.00 0.00 26 1022.2
20200711174339 85 129 3.0 7.0 0.00 0.00 0.00 27 1022.2
20200711173849 85 191 4.0 7.0 0.00 0.00 0.00 25 1022.2
20200711173330 85 183 4.0 7.0 0.00 0.00 0.00 25 1022.2
20200711172833 84 83 5.0 8.0 0.00 0.00 0.00 25 1022.3
20200711172338 83 198 4.0 13.0 0.00 0.00 0.00 27 1022.2
20200711171844 83 159 5.0 11.0 0.00 0.00 0.00 27 1022.3
20200711171348 82 182 4.0 12.0 0.00 0.00 0.00 27 1022.2
20200711170833 82 132 6.0 15.0 0.00 0.00 0.00 26 1022.2
20200711170335 82 88 6.0 15.0 0.00 0.00 0.00 27 1022.2